Overview Statistics Trail Chart Weather Telemetry Raw packets
 

This is the latest recevied weather packets stored in our database for station/object N1YZ. If no packets are shown the sender has not sent any weather packets the latest 10 day(s).

<< 95 96 97 98 99 100 101 >>
Time Temp. Humidity Pressure Rain* Wind** Luminosity Snow
1787941317 32.78° C 55% 1036.5 hPa 0 mm - 694 W/m² -
1787941016 31.67° C 62% 1036.8 hPa 0 mm - 685 W/m² -
1787940715 31.11° C 64% 1036.6 hPa 0 mm - 655 W/m² -
1787940414 31.11° C 61% 1036.5 hPa 0 mm - 82 W/m² -
1787940108 30.56° C 63% 1036.7 hPa 0 mm - 720 W/m² -
1787939808 31.11° C 65% 1036.8 hPa 0 mm - 707 W/m² -
1787939507 31.67° C 62% 1036.6 hPa 0 mm - 94 W/m² -
1787939202 31.67° C 63% 1036.8 hPa 0 mm - 700 W/m² -
1787938897 30.56° C 64% 1036.8 hPa 0 mm - 709 W/m² -
1787938597 30° C 64% 1036.8 hPa 0 mm - 629 W/m² -
1787938293 31.11° C 59% 1036.8 hPa 0 mm - 82 W/m² -
1787937988 31.11° C 64% 1036.7 hPa 0 mm - 143 W/m² -
1787937682 31.11° C 60% 1036.7 hPa 0 mm - 688 W/m² -
1787937379 31.11° C 60% 1036.9 hPa 0 mm - 679 W/m² -
1787937075 31.11° C 66% 1036.8 hPa 0 mm - 669 W/m² -
1787936775 31.67° C 63% 1037 hPa 0 mm - 126 W/m² -
1787936469 31.67° C 65% 1036.9 hPa 0 mm - 663 W/m² -
1787936169 31.67° C 67% 1036.9 hPa 0 mm - 659 W/m² -
1787935864 31.11° C 66% 1036.9 hPa 0 mm - 647 W/m² -
1787935560 31.11° C 66% 1036.9 hPa 0 mm - 542 W/m² -
1787935256 30.56° C 67% 1037.1 hPa 0 mm - 623 W/m² -
1787934951 30.56° C 66% 1036.8 hPa 0 mm - 621 W/m² -
1787934645 30° C 74% 1037 hPa 0 mm - 573 W/m² -
1787934339 30° C 71% 1037 hPa 0 mm - 197 W/m² -
1787934038 29.44° C 77% 1036.7 hPa 0 mm - 150 W/m² -

* Rain latest hour (hover to see other rain measurements)
** Current wind speed in m/s (hover to see current wind gust speed)